[[{"header":{"parameterUnit":"m.s-1","parameterCategory":1,"la1":30.2991,"la2":30.254,"lo1":-89.0895,"lo2":-89.0444,"dy":0.0017,"dx":0.0017,"nx":28,"ny":28,"refTime":"2024-12-26T09:00:00:Z","depth":0,"parameterNumber":2,"parameterNumberName":"U-component_of_WINDS"},"data":[0,0,0,0,0,0,0,0,0,0,0,0,0,0,0,0,0,0,0,0,0,0,0,0,0,0,0,0,0,0,0,0,0,0,0,0,0,0,0,0,0,0,0,0,0,0,0,0,0,0,0,0,0,0,0,0,0,0,-7.429,-7.429,0,-7.4274,-7.4274,-7.4274,-7.4058,-7.4053,-7.4047,-7.4042,-7.4029,-7.4033,-7.4038,0,0,0,0,0,0,0,0,0,0,0,0,0,-7.4137,-7.4141,-7.429,-7.429,-7.429,-7.4274,-7.4274,-7.4274,-7.4059,-7.4052,-7.4046,-7.404,-7.4027,-7.4033,-7.4039,0,0,0,0,0,0,0,0,0,0,0,0,0,-7.4171,-7.4142,-7.429,-7.4181,-7.4171,-7.4275,-7.4274,-7.4274,-7.4061,-7.4052,-7.4044,-7.4036,-7.4025,-7.4032,-7.4039,-7.4248,0,0,-7.4061,-7.4064,0,0,0,0,0,0,0,0,-7.4169,-7.4177,-7.4197,-7.4188,-7.4177,-7.416,-7.4215,-7.4265,-7.4063,-7.4103,-7.4042,-7.4032,-7.4079,-7.4081,-7.4097,-7.4247,-7.4247,-7.4062,-7.4066,-7.4069,-7.4071,0,0,0,0,0,0,0,-7.4167,-7.4176,-7.4284,-7.4197,-7.4186,-7.4133,-7.4129,-7.4224,-7.4137,-7.4098,-7.4083,-7.4084,-7.4072,-7.409,-7.4095,-7.4246,-7.4062,-7.4068,-7.4072,-7.4075,-7.4568,-7.4576,0,0,0,0,0,0,-7.4179,-7.4176,-7.4284,-7.4283,-7.4153,-7.4143,-7.4138,-7.4174,-7.4136,-7.4122,-7.4091,-7.4074,-7.4082,-7.4087,-7.4093,-7.4335,-7.4069,-7.4076,-7.408,-7.4559,-7.457,-7.4579,0,0,0,0,0,0,-7.4177,-7.4191,-7.4285,-7.4225,-7.4233,-7.4154,-7.4196,-7.4178,-7.4195,-7.413,-7.4113,-7.4125,-7.4076,-7.4083,-7.4211,-7.4331,-7.4079,-7.4085,-7.4549,-7.4562,-7.4575,-7.482,0,0,0,0,0,0,-7.4174,-7.4192,-7.4269,-7.4229,-7.4237,-7.4403,-7.4203,-7.4183,-7.4208,-7.4185,-7.4157,-7.4145,-7.407,-7.4202,-7.4218,-7.4337,-7.4091,-7.4538,-7.4555,-7.457,-7.4801,-7.484,-7.4874,0,0,0,0,0,-7.4169,-7.4339,-7.4274,-7.4288,-7.4332,-7.441,-7.4415,-7.4324,-7.4219,-7.4296,-7.4254,-7.4146,-7.4316,-7.4216,-7.4233,-7.4356,-7.453,-7.455,-7.4569,-7.4784,-7.4832,-7.4873,0,0,0,0,0,0,-7.4396,-7.4332,-7.4259,-7.4421,-7.4423,-7.4373,-7.4468,-7.4378,-7.441,-7.4388,-7.4275,-7.4271,-7.4416,-7.4398,-7.4289,-7.4556,-7.4404,-7.4428,-7.4562,-7.4607,-7.4642,-7.4643,-7.4097,0,0,0,0,0,-7.4465,-7.4533,-7.4473,-7.4622,-7.4627,-7.4549,-7.4579,-7.4509,-7.4506,-7.4506,-7.4473,-7.4476,-7.4529,-7.4567,-7.4613,-7.4798,-7.4789,-7.489,-7.4927,-7.4957,-7.4979,-7.5076,-7.5121,-7.4645,-7.4644,-7.4644,0,0,-7.4609,-7.4582,-7.4631,-7.4667,-7.466,-7.4733,-7.455,-7.4635,-7.4689,-7.4519,-7.4637,-7.4614,-7.4609,-7.4767,-7.4834,-7.4756,-7.5109,-7.4982,-7.5007,-7.5012,-7.5101,-7.5146,-7.5186,-7.4658,-7.4656,-7.4653,0,0,-7.4907,-7.4893,-7.5016,-7.5013,-7.5004,-7.4951,-7.4982,-7.4947,-7.4924,-7.5041,-7.4915,-7.4978,-7.5073,-7.5075,-7.5089,-7.5391,-7.5292,-7.5409,-7.5599,-7.5695,-7.5732,-7.5765,-7.5872,-7.5912,-7.5431,-7.5432,-7.5432,0,-7.5086,-7.519,-7.5091,-7.5184,-7.5204,-7.5054,-7.5178,-7.518,-7.5189,-7.5206,-7.5119,-7.5236,-7.5222,-7.5378,-7.5452,-7.5468,-7.5499,-7.5411,-7.5735,-7.5766,-7.5795,-7.5897,-7.5938,-7.5446,-7.5445,-7.5443,-7.5442,0,-7.5411,-7.5486,-7.5586,-7.5597,-7.5628,-7.5737,-7.5655,-7.5699,-7.5628,-7.5585,-7.5707,-7.5685,-7.5725,-7.5757,-7.5688,-7.5904,-7.5856,-7.5754,-7.5599,-7.5857,-7.595,-7.5988,-7.5467,-7.5461,-7.5457,-7.5454,0,0,-7.5849,-7.5805,-7.5844,-7.5847,-7.5828,-7.5884,-7.5988,-7.6025,-7.6065,-7.6077,-7.616,-7.6246,-7.6151,-7.6167,-7.6097,-7.6182,-7.6423,-7.6069,-7.6067,-7.6135,-7.666,-7.6736,-7.6783,-7.6358,-7.6365,-7.6371,-7.666,0,-7.6136,-7.6308,-7.6222,-7.6405,-7.6473,-7.6333,-7.6423,-7.6422,-7.6385,-7.6439,-7.6398,-7.646,-7.6331,-7.6339,-7.6417,-7.6377,-7.6527,-7.6355,-7.6435,-7.6439,-7.6439,-7.6831,-7.6911,-7.7185,-7.6696,-7.6702,-7.6706,0,-7.6493,-7.6519,-7.6709,-7.6678,-7.6704,-7.6786,-7.6814,-7.6867,-7.6864,-7.6831,-7.6851,-7.6762,-7.6862,-7.671,-7.6846,-7.6731,-7.6759,-7.6745,-7.6754,-7.6757,-7.6588,-7.6844,-7.727,-7.7312,-7.6763,-7.6758,-7.6754,0,-7.6794,-7.6877,-7.7001,-7.7008,-7.6976,-7.7037,-7.7027,-7.7015,-7.7044,-7.7069,-7.7087,-7.7125,-7.7146,-7.7178,-7.7102,-7.6998,-7.7249,-7.709,-7.7225,-7.7228,-7.7283,-7.728,-7.7719,-7.7304,-7.7303,-7.7302,-7.7302,0,-7.7122,-7.7244,-7.7135,-7.7212,-7.7344,-7.7246,-7.738,-7.7354,-7.7346,-7.7416,-7.7298,-7.7366,-7.7262,-7.7321,-7.7263,-7.7385,-7.7396,-7.7372,-7.7355,-7.7382,-7.7385,-7.7398,-7.7377,-7.7313,-7.7311,-7.7309,-7.7307,0,-7.7479,-7.7411,-7.7537,-7.7497,-7.749,-7.7589,-7.7555,-7.7625,-7.7581,-7.7671,-7.7686,-7.7618,-7.768,-7.7609,-7.7666,-7.7627,-7.7792,-7.7747,-7.7793,-7.778,-7.7919,-7.7907,-7.838,-7.8437,-7.7987,-7.7991,-7.7995,0,-7.7692,-7.7782,-7.7752,-7.779,-7.7787,-7.785,-7.7878,-7.7786,-7.7822,-7.7826,-7.7896,-7.7949,-7.7985,-7.8093,-7.8049,-7.8093,-7.8047,-7.8211,-7.8053,-7.8078,-7.8049,-7.8044,-7.8053,-7.8242,-7.8248,-7.8252,-7.8256,0,-7.8078,-7.804,-7.8086,-7.8122,-7.8159,-7.8183,-7.8197,-7.8236,-7.814,-7.8186,-7.8249,-7.8278,-7.8337,-7.8391,-7.8423,-7.8412,-7.832,-7.8306,-7.8339,-7.8367,-7.839,-7.8379,-7.788,-7.8295,-7.8291,-7.8288,-7.8286,-7.8285,-7.8368,-7.8442,-7.8433,-7.8488,-7.849,-7.8507,-7.857,-7.8535,-7.8585,-7.8625,-7.8569,-7.8647,-7.8643,-7.8676,-7.8677,-7.8738,-7.8668,-7.8716,-7.8728,-7.8742,-7.8762,-7.8382,-7.8743,-7.8742,-7.8741,-7.874,-7.8739,0,-7.8747,-7.8734,-7.8787,-7.8811,-7.8855,-7.8764,-7.8776,-7.8819,-7.889,-7.8894,-7.8933,-7.9006,-7.9059,-7.902,-7.9065,-7.9121,-7.9079,-7.9136,-7.913,-7.9129,-7.8822,-7.8788,-7.9168,-7.9168,-7.9168,-7.9168,-7.9168,-7.9168,-7.8949,-7.9069,-7.9031,-7.9152,-7.9138,-7.9214,-7.9229,-7.9244,-7.9247,-7.9334,-7.9377,-7.9351,-7.9338,-7.9381,-7.9426,-7.9413,-7.9435,-7.9507,-7.9479,-7.9193,-7.9151,-7.911,-7.9078,-7.9513,-7.9513,-7.978,-7.9783,-7.9785]},{"header":{"parameterUnit":"m.s-1","parameterCategory":1,"la1":30.2991,"la2":30.254,"lo1":-89.0895,"lo2":-89.0444,"dy":0.0017,"dx":0.0017,"nx":28,"ny":28,"refTime":"2024-12-26T09:00:00:Z","depth":0,"parameterNumber":3,"parameterNumberName":"V-component_of_WINDS"},"data":[0,0,0,0,0,0,0,0,0,0,0,0,0,0,0,0,0,0,0,0,0,0,0,0,0,0,0,0,0,0,0,0,0,0,0,0,0,0,0,0,0,0,0,0,0,0,0,0,0,0,0,0,0,0,0,0,0,0,-0.08,-0.08,0,-0.0834,-0.0834,-0.0834,-0.079,-0.0788,-0.0786,-0.0785,-0.0823,-0.0826,-0.0828,0,0,0,0,0,0,0,0,0,0,0,0,0,-0.0698,-0.07,-0.08,-0.08,-0.0801,-0.0834,-0.0834,-0.0834,-0.079,-0.0788,-0.0786,-0.0784,-0.0822,-0.0825,-0.0828,0,0,0,0,0,0,0,0,0,0,0,0,0,-0.0738,-0.0701,-0.08,-0.0782,-0.0781,-0.0833,-0.0834,-0.0835,-0.079,-0.0788,-0.0785,-0.0783,-0.0821,-0.0825,-0.0829,-0.0901,0,0,-0.084,-0.0842,0,0,0,0,0,0,0,0,-0.0736,-0.0742,-0.0784,-0.0784,-0.0782,-0.0805,-0.0812,-0.0857,-0.0791,-0.0787,-0.0785,-0.0782,-0.0819,-0.0823,-0.0835,-0.0903,-0.0904,-0.0841,-0.0843,-0.0845,-0.0846,0,0,0,0,0,0,0,-0.0733,-0.074,-0.0813,-0.0785,-0.0784,-0.0773,-0.0776,-0.082,-0.0817,-0.0787,-0.0784,-0.0788,-0.0818,-0.0831,-0.0835,-0.0905,-0.0841,-0.0844,-0.0846,-0.0848,-0.1033,-0.1035,0,0,0,0,0,0,-0.0732,-0.0738,-0.0812,-0.0814,-0.0753,-0.0777,-0.078,-0.08,-0.0816,-0.0816,-0.079,-0.0786,-0.0826,-0.0831,-0.0837,-0.0922,-0.0845,-0.0848,-0.085,-0.103,-0.1033,-0.1036,0,0,0,0,0,0,-0.073,-0.0739,-0.0811,-0.0775,-0.0784,-0.0781,-0.0804,-0.0802,-0.0815,-0.0818,-0.0818,-0.0804,-0.0824,-0.0831,-0.0885,-0.0923,-0.085,-0.0853,-0.1027,-0.1031,-0.1035,-0.1094,0,0,0,0,0,0,-0.0728,-0.0739,-0.0766,-0.0776,-0.0786,-0.0858,-0.0806,-0.0805,-0.0821,-0.0816,-0.0831,-0.0831,-0.0823,-0.0879,-0.0889,-0.0927,-0.0856,-0.1024,-0.1029,-0.1033,-0.1088,-0.1099,-0.1108,0,0,0,0,0,-0.0724,-0.0783,-0.0768,-0.0777,-0.082,-0.086,-0.0866,-0.0854,-0.0825,-0.0852,-0.0854,-0.0831,-0.0916,-0.0885,-0.0895,-0.0935,-0.1021,-0.1027,-0.1033,-0.1084,-0.1097,-0.1108,0,0,0,0,0,0,-0.0779,-0.0784,-0.0768,-0.0831,-0.0845,-0.0853,-0.0887,-0.0868,-0.0893,-0.0887,-0.0872,-0.0876,-0.0933,-0.0939,-0.0904,-0.1005,-0.0964,-0.0972,-0.0999,-0.1012,-0.1022,-0.102,-0.0859,0,0,0,0,0,-0.0798,-0.083,-0.0832,-0.0888,-0.0896,-0.089,-0.0908,-0.0897,-0.0912,-0.0918,-0.0924,-0.094,-0.097,-0.0991,-0.1019,-0.1088,-0.1091,-0.112,-0.113,-0.1138,-0.1146,-0.1183,-0.1196,-0.1055,-0.1055,-0.1055,0,0,-0.0838,-0.0845,-0.0866,-0.0899,-0.0909,-0.0943,-0.0896,-0.0934,-0.096,-0.0924,-0.0975,-0.098,-0.0997,-0.1058,-0.1085,-0.1065,-0.1185,-0.1146,-0.1152,-0.1156,-0.119,-0.1203,-0.1215,-0.1059,-0.1059,-0.1058,0,0,-0.0929,-0.0937,-0.0984,-0.0994,-0.1009,-0.1005,-0.1016,-0.1026,-0.1027,-0.1077,-0.1051,-0.1081,-0.1134,-0.1147,-0.116,-0.1254,-0.1234,-0.1263,-0.1316,-0.1352,-0.1363,-0.1373,-0.1407,-0.1419,-0.1271,-0.1271,-0.1271,0,-0.0978,-0.1028,-0.1011,-0.105,-0.1066,-0.1033,-0.108,-0.1092,-0.1116,-0.1127,-0.1103,-0.1168,-0.1177,-0.1241,-0.1263,-0.1275,-0.1288,-0.1263,-0.1362,-0.1372,-0.1381,-0.1413,-0.1426,-0.1274,-0.1274,-0.1273,-0.1273,0,-0.1087,-0.1122,-0.1158,-0.118,-0.1199,-0.1242,-0.1232,-0.1253,-0.124,-0.1238,-0.1289,-0.1298,-0.1328,-0.1341,-0.133,-0.1403,-0.139,-0.1365,-0.1324,-0.1398,-0.1428,-0.144,-0.1279,-0.1278,-0.1277,-0.1276,0,0,-0.1217,-0.1227,-0.1241,-0.125,-0.1263,-0.1289,-0.1331,-0.1357,-0.1376,-0.1393,-0.1428,-0.1472,-0.1448,-0.1463,-0.1452,-0.1483,-0.1556,-0.1454,-0.1454,-0.1473,-0.1638,-0.1658,-0.1673,-0.1542,-0.1544,-0.1546,-0.1637,0,-0.1308,-0.1379,-0.1364,-0.1434,-0.1465,-0.1433,-0.1469,-0.1481,-0.148,-0.1507,-0.1505,-0.1537,-0.1503,-0.1512,-0.1541,-0.1541,-0.159,-0.1534,-0.1576,-0.1577,-0.1574,-0.1689,-0.171,-0.1796,-0.1649,-0.1651,-0.1652,0,-0.1425,-0.1445,-0.1517,-0.1524,-0.1536,-0.1569,-0.1592,-0.1617,-0.163,-0.1627,-0.1643,-0.1625,-0.1666,-0.1623,-0.168,-0.1642,-0.1658,-0.1661,-0.1664,-0.1669,-0.1621,-0.1698,-0.1823,-0.1836,-0.167,-0.1669,-0.1667,0,-0.1513,-0.1558,-0.1607,-0.1615,-0.1624,-0.1647,-0.1652,-0.1662,-0.1679,-0.1699,-0.1709,-0.1734,-0.1748,-0.1768,-0.1758,-0.1727,-0.1817,-0.1772,-0.1816,-0.1816,-0.1838,-0.1837,-0.1969,-0.1846,-0.1846,-0.1845,-0.1845,0,-0.1618,-0.1664,-0.1646,-0.1677,-0.1727,-0.1708,-0.1759,-0.176,-0.1768,-0.1799,-0.1772,-0.1801,-0.1785,-0.1813,-0.1805,-0.1853,-0.186,-0.1859,-0.1857,-0.1862,-0.1863,-0.1874,-0.1868,-0.1849,-0.1848,-0.1847,-0.1847,0,-0.1726,-0.1716,-0.1767,-0.177,-0.1771,-0.1809,-0.1811,-0.184,-0.1835,-0.1873,-0.1881,-0.1875,-0.1906,-0.1897,-0.1931,-0.1925,-0.1987,-0.1976,-0.1983,-0.1981,-0.2025,-0.2022,-0.217,-0.2189,-0.2052,-0.2054,-0.2055,0,-0.1795,-0.1829,-0.1835,-0.1852,-0.1859,-0.1888,-0.1904,-0.1886,-0.1904,-0.192,-0.1946,-0.1975,-0.1997,-0.2048,-0.2047,-0.2073,-0.2064,-0.2114,-0.2068,-0.2072,-0.2066,-0.2064,-0.2068,-0.2124,-0.2125,-0.2127,-0.2128,0,-0.1918,-0.191,-0.1934,-0.1956,-0.1975,-0.1992,-0.2006,-0.2022,-0.2005,-0.2027,-0.2057,-0.2074,-0.2108,-0.2137,-0.216,-0.2165,-0.2145,-0.2142,-0.2153,-0.216,-0.2163,-0.2163,-0.2009,-0.2139,-0.2138,-0.2137,-0.2136,-0.2136,-0.2009,-0.2037,-0.2045,-0.2072,-0.208,-0.2094,-0.212,-0.2118,-0.2143,-0.2168,-0.2156,-0.2192,-0.2202,-0.223,-0.2239,-0.2267,-0.2248,-0.2264,-0.2269,-0.2274,-0.228,-0.2157,-0.2271,-0.227,-0.227,-0.227,-0.2269,0,-0.2131,-0.2134,-0.2158,-0.2178,-0.2199,-0.2175,-0.2189,-0.2209,-0.224,-0.225,-0.2272,-0.2307,-0.2334,-0.2334,-0.2359,-0.2382,-0.2373,-0.2389,-0.2388,-0.239,-0.2295,-0.2283,-0.2396,-0.2396,-0.2396,-0.2396,-0.2396,-0.2396,-0.2197,-0.2244,-0.2237,-0.2288,-0.229,-0.2324,-0.2334,-0.2346,-0.2354,-0.2394,-0.2416,-0.2415,-0.2421,-0.2446,-0.247,-0.247,-0.2481,-0.2501,-0.2497,-0.2409,-0.2397,-0.2385,-0.2373,-0.2503,-0.2504,-0.259,-0.2591,-0.2591]}]]